Location: Brivio
(45.7333°N, 9.4500°E)
Time: 06:05:29
(UTC+00:00)

H-2A R/B - Pass Details

Date: 18 October 2019
Orbit: 503 x 540 km, 97.3° (Epoch: 11 November)

Event Time Altitude Azimuth Distance (km) Brightness Sun altitude
Rises 16:56:24 0° 169° (S) 2,667 6.3 -5.0°
Reaches altitude 10° 16:58:29 10° 171° (S) 1,786 5.4 -5.4°
Maximum altitude 17:02:21 79° 258° (WSW) 555 3.0 -6.1°
Drops below altitude 10° 17:06:17 10° 345° (NNW) 1,813 5.6 -6.7°
Sets 17:08:25 0° 347° (NNW) 2,711 6.4 -7.1°
